Hourly Data Report for October 17, 2019

All times are specified in Local Standard Time (LST). Add 1 hour to adjust for Daylight Saving Time where and when it is observed.

EUREKA CLIMATE
NUNAVUT
Current Station Operator: ECCC - MSC

79°59'21.000" N
85°56'02.000" W
10.00 m
2401199
71613
NEK

Download Data

Hourly Data (October 2019)
Hourly Data Report for October 17, 2019
TIME Temp Definition
°C
Dew Point Definition
°C
Rel Hum Definition
%
Wind Dir Definition
10's deg

Wind Spd Definition
km/h
Visibility Definition
km
Stn Press Definition
kPa
Hmdx Definition


Wind Chill Definition


Weather Definition


00:00 -7.7 -10.0 84 29 17   100.57   -14 LegendNANA
01:00 -8.6 -11.0 83 26 16   100.60   -15 LegendNANA
02:00 -9.1 -13.4 71 28 18   100.68   -16 LegendNANA
03:00 -11.2 -13.7 82 29 18   100.75   -19 LegendNANA
04:00 -11.8 -14.7 79 28 22   100.78   -21 LegendNANA
05:00 -14.6 -18.1 75 36 17   100.83   -23 LegendNANA
06:00 -14.5 -18.8 70 33 26   100.86   -25 LegendNANA
07:00 -15.3 -19.7 69 33 30   100.90   -26 LegendNANA
08:00 -16.3 -20.8 68 33 30   100.98   -28 LegendNANA
09:00 -17.7 -20.9 76 2 29   101.10   -29 LegendNANA
10:00 -18.3 -22.0 72 1 21   101.15   -29 LegendNANA
11:00 -18.2 -23.1 66 1 11   101.25   -25 LegendNANA
12:00 -18.3 -23.2 65 31 10   101.26   -25 LegendNANA
13:00 -18.0 -22.0 71 29 22   101.30   -28 LegendNANA
14:00 -20.6 -24.9 69 35 6   101.34   -26 LegendNANA
15:00 -19.8 -23.6 72 36 5   101.37   -24 LegendNANA
16:00 -21.6 -25.2 73 1 9   101.43   -29 LegendNANA
17:00 -18.7 -21.7 77 36 7   101.48   -24 LegendNANA
18:00 -18.0 -20.3 82 31 17   101.52   -27 LegendNANA
19:00 -19.0 -21.1 83 2 8   101.55   -25 LegendNANA
20:00 -16.7 -19.1 81 29 23   101.56   -27 LegendNANA
21:00 -16.4 -18.8 82 30 12   101.57   -24 LegendNANA
22:00 -16.3 -18.4 84 31 18   101.61   -25 LegendNANA
23:00 -16.5 -18.3 86 31 11   101.63   -23 LegendNANA

Notes on Data Quality.

Legend

  • E = Estimated
  • M = Missing
  • NA = Not Available
Date modified: